Voltar ao catálogo

STARLINK-4106

AtivoComunicaçõesVLEO
NORAD 53145·PAYLOAD·🇺🇸 United States

Lançado Jul 17, 2022 de Cape Canaveral Space Force Station

Loading…

Próximas Passagens (próximas 24 horas)

TLE

AtualizadoSource: CelesTrak SupGP

Época: Sep 14, 2026, 20:32 UTC

1 53145C 22083P   26257.85604167  .00044522  00000+0  14322-2 0  2579
2 53145  53.1597  33.2033 0001256  70.1848  85.8113 15.31670057    18

Acompanhe STARLINK-4106 em tempo real com AllMySat

Download on the App Store